Location: Mohawk View
(42.7837°N, 73.7885°W)
Time: 08:26:19
(UTC+00:00)

Okean 1 Rocket - Pass Details

Date: 17 June 2021
Orbit: 607 x 633 km, 82.5° (Epoch: 27 July)

Event Time Altitude Azimuth Distance (km) Brightness Sun altitude
Rises 01:15:37 0° 355° (N) 2,882 7.3 -6.6°
Reaches altitude 10° 01:17:52 10° 360° (N) 1,976 6.3 -7.0°
Maximum altitude 01:22:10 57° 79° (E) 723 3.2 -7.5°
Drops below altitude 10° 01:26:29 10° 159° (SSE) 1,974 5.1 -8.1°
Enters shadow 01:27:03 - 161° (SSE) 2,196 5.3 -8.2°
